SHT22B EGLL-EGJB

Flight info

Callsign SHT22B
Flight time 0h 38m
Altitude 18000
Route GASGU N514 EVTES N621 SAM/N0387F200 N63 LELNA
Aircraft A320/M-SDE3FGHIRWY/LB1

Departure

Time 2026-04-26 11:29
Airport London Heathrow Airport (EGLL)

Arrival

Time 2026-04-26 12:07
Airport Guernsey Airport (EGJB)
Time Latitude Longitude Altitude Speed Heading
2026-04-26 10:46 51.46930 -0.48787 90 ft 0 kts 360°
2026-04-26 11:18 51.46926 -0.48787 86 ft 3 kts 360°
2026-04-26 11:19 51.46899 -0.48787 88 ft 4 kts 360°
2026-04-26 11:19 51.46879 -0.48791 87 ft 4 kts 66°
2026-04-26 11:19 51.46876 -0.48803 87 ft 3 kts 90°
2026-04-26 11:19 51.46876 -0.48777 87 ft 0 kts 90°
2026-04-26 11:21 51.46876 -0.48773 88 ft 2 kts 98°
2026-04-26 11:22 51.46846 -0.48750 88 ft 8 kts 173°
2026-04-26 11:22 51.46804 -0.48749 86 ft 0 kts 179°
2026-04-26 11:23 51.46792 -0.48749 86 ft 5 kts 179°
2026-04-26 11:24 51.46731 -0.48748 86 ft 11 kts 179°
2026-04-26 11:24 51.46645 -0.48747 86 ft 14 kts 181°
2026-04-26 11:24 51.46597 -0.48768 88 ft 0 kts 200°
2026-04-26 11:26 51.46596 -0.48768 88 ft 0 kts 200°
2026-04-26 11:26 51.46577 -0.48779 87 ft 6 kts 199°
2026-04-26 11:27 51.46512 -0.48773 89 ft 12 kts 154°
2026-04-26 11:27 51.46479 -0.48654 86 ft 0 kts 89°
2026-04-26 11:28 51.46479 -0.48647 86 ft 4 kts 89°
2026-04-26 11:28 51.46480 -0.48249 89 ft 73 kts 90°
2026-04-26 11:29 51.46483 -0.47090 87 ft 131 kts 90°
2026-04-26 11:29 51.46482 -0.45407 298 ft 158 kts 90°
2026-04-26 11:29 51.46496 -0.43676 1070 ft 155 kts 89°
2026-04-26 11:29 51.46522 -0.41959 1840 ft 154 kts 96°
2026-04-26 11:30 51.46083 -0.40311 2204 ft 174 kts 128°
2026-04-26 11:30 51.45560 -0.39277 2426 ft 189 kts 128°
2026-04-26 11:30 51.44423 -0.36816 2996 ft 222 kts 126°
2026-04-26 11:30 51.43425 -0.34765 3583 ft 244 kts 136°
2026-04-26 11:31 51.41978 -0.33270 4455 ft 253 kts 158°
2026-04-26 11:31 51.40225 -0.32785 5368 ft 261 kts 182°
2026-04-26 11:31 51.38447 -0.33513 6205 ft 269 kts 207°
2026-04-26 11:31 51.36951 -0.35343 7104 ft 274 kts 223°
2026-04-26 11:32 51.35556 -0.37394 8003 ft 277 kts 223°
2026-04-26 11:32 51.34126 -0.39487 8919 ft 280 kts 223°
2026-04-26 11:32 51.32671 -0.41607 9818 ft 284 kts 222°
2026-04-26 11:32 51.31248 -0.43827 10672 ft 288 kts 231°
2026-04-26 11:33 51.30211 -0.46561 11511 ft 289 kts 248°
2026-04-26 11:33 51.29594 -0.49682 12073 ft 304 kts 254°
2026-04-26 11:33 51.28987 -0.53057 12296 ft 328 kts 254°
2026-04-26 11:33 51.28341 -0.56647 12698 ft 342 kts 254°
2026-04-26 11:34 51.27665 -0.60314 13436 ft 346 kts 253°
2026-04-26 11:34 51.26956 -0.64005 14182 ft 349 kts 252°
2026-04-26 11:34 51.26228 -0.67715 14846 ft 353 kts 252°
2026-04-26 11:34 51.25487 -0.71463 15487 ft 356 kts 252°
2026-04-26 11:35 51.24741 -0.75243 16126 ft 359 kts 252°
2026-04-26 11:35 51.23991 -0.79061 16759 ft 362 kts 252°
2026-04-26 11:35 51.23236 -0.82907 17400 ft 365 kts 252°
2026-04-26 11:35 51.22732 -0.85471 17837 ft 367 kts 252°
2026-04-26 11:36 51.21705 -0.90686 18281 ft 369 kts 252°
2026-04-26 11:36 51.20811 -0.94604 18333 ft 385 kts 245°
2026-04-26 11:36 51.19485 -0.98372 18328 ft 393 kts 235°
2026-04-26 11:36 51.17824 -1.01856 18329 ft 395 kts 231°
2026-04-26 11:37 51.16133 -1.05319 18325 ft 396 kts 231°
2026-04-26 11:37 51.14445 -1.08780 18325 ft 396 kts 231°
2026-04-26 11:37 51.12754 -1.12240 18303 ft 396 kts 232°
2026-04-26 11:37 51.11063 -1.15695 18303 ft 396 kts 231°
2026-04-26 11:38 51.09358 -1.19137 18322 ft 396 kts 229°
2026-04-26 11:38 51.07402 -1.22197 18322 ft 395 kts 219°
2026-04-26 11:38 51.05142 -1.24698 18328 ft 396 kts 213°
2026-04-26 11:38 51.02822 -1.27047 18329 ft 396 kts 213°
2026-04-26 11:39 51.00499 -1.29407 18331 ft 396 kts 213°
2026-04-26 11:39 50.98183 -1.31769 18330 ft 396 kts 213°
2026-04-26 11:39 50.95865 -1.34128 18331 ft 395 kts 212°
2026-04-26 11:39 50.93471 -1.36155 18325 ft 396 kts 207°
2026-04-26 11:40 50.91013 -1.38130 18326 ft 396 kts 207°
2026-04-26 11:40 50.88521 -1.40123 18325 ft 396 kts 207°
2026-04-26 11:40 50.86096 -1.42057 18326 ft 395 kts 207°
2026-04-26 11:40 50.83645 -1.44008 18335 ft 394 kts 207°
2026-04-26 11:41 50.81192 -1.45957 18338 ft 394 kts 207°
2026-04-26 11:42 50.64081 -1.59490 18318 ft 392 kts 207°
2026-04-26 11:43 50.61636 -1.61422 18311 ft 392 kts 207°
2026-04-26 11:43 50.59194 -1.63345 18309 ft 392 kts 207°
2026-04-26 11:43 50.56749 -1.65267 18305 ft 393 kts 207°
2026-04-26 11:43 50.54307 -1.67186 18304 ft 393 kts 207°
2026-04-26 11:44 50.51863 -1.69107 18307 ft 393 kts 207°
2026-04-26 11:44 50.49417 -1.71024 18302 ft 393 kts 207°
2026-04-26 11:44 50.46967 -1.72939 18303 ft 393 kts 207°
2026-04-26 11:44 50.44519 -1.74852 18303 ft 393 kts 207°
2026-04-26 11:45 50.42898 -1.76121 18305 ft 393 kts 207°
2026-04-26 11:45 50.40447 -1.78038 18292 ft 394 kts 208°
2026-04-26 11:45 50.37995 -1.79958 18291 ft 394 kts 207°
2026-04-26 11:45 50.35541 -1.81877 18290 ft 395 kts 207°
2026-04-26 11:46 50.33080 -1.83794 18294 ft 395 kts 207°
2026-04-26 11:46 50.30617 -1.85703 18291 ft 395 kts 208°
2026-04-26 11:46 50.28153 -1.87609 18290 ft 396 kts 208°
2026-04-26 11:46 50.25684 -1.89520 18289 ft 396 kts 208°
2026-04-26 11:47 50.23217 -1.91429 18289 ft 396 kts 208°
2026-04-26 11:47 50.20747 -1.93337 18284 ft 396 kts 208°
2026-04-26 11:47 50.18277 -1.95243 18283 ft 396 kts 208°
2026-04-26 11:47 50.15808 -1.97147 18273 ft 396 kts 208°
2026-04-26 11:48 50.13338 -1.99051 18275 ft 396 kts 208°
2026-04-26 11:48 50.10864 -2.00956 18273 ft 396 kts 208°
2026-04-26 11:48 50.08391 -2.02860 18273 ft 396 kts 208°
2026-04-26 11:48 50.05919 -2.04762 18274 ft 397 kts 208°
2026-04-26 11:49 50.03443 -2.06667 18271 ft 397 kts 208°
2026-04-26 11:49 50.00971 -2.08568 18274 ft 397 kts 208°
2026-04-26 11:49 49.98621 -2.10779 18275 ft 395 kts 218°
2026-04-26 11:49 49.96565 -2.13598 18278 ft 393 kts 228°
2026-04-26 11:50 49.94779 -2.16733 18267 ft 393 kts 230°
2026-04-26 11:50 49.92970 -2.19916 18264 ft 394 kts 229°
2026-04-26 11:50 49.91149 -2.23095 18263 ft 394 kts 229°
2026-04-26 11:50 49.89325 -2.26267 18262 ft 394 kts 229°
2026-04-26 11:51 49.87501 -2.29435 18281 ft 393 kts 229°
2026-04-26 11:51 49.85682 -2.32590 18173 ft 387 kts 229°
2026-04-26 11:51 49.83915 -2.35654 17735 ft 377 kts 229°
2026-04-26 11:51 49.82174 -2.38675 17006 ft 376 kts 229°
2026-04-26 11:52 49.80443 -2.41684 16322 ft 373 kts 229°
2026-04-26 11:52 49.78724 -2.44672 15386 ft 367 kts 228°
2026-04-26 11:52 49.77040 -2.47589 14271 ft 361 kts 228°
2026-04-26 11:52 49.75370 -2.50475 13050 ft 358 kts 227°
2026-04-26 11:53 49.73718 -2.53321 11895 ft 353 kts 227°
2026-04-26 11:53 49.72105 -2.56096 11015 ft 342 kts 227°
2026-04-26 11:53 49.70496 -2.58741 10147 ft 334 kts 220°
2026-04-26 11:54 49.66212 -2.60503 8281 ft 325 kts 175°
2026-04-26 11:54 49.63973 -2.60170 7381 ft 321 kts 181°
2026-04-26 11:54 49.61814 -2.60866 6496 ft 318 kts 205°
2026-04-26 11:54 49.59964 -2.62690 5583 ft 315 kts 217°
2026-04-26 11:55 49.58265 -2.64730 4683 ft 313 kts 218°
2026-04-26 11:55 49.56581 -2.66824 3828 ft 309 kts 218°
2026-04-26 11:55 49.54962 -2.68891 3251 ft 295 kts 218°
2026-04-26 11:55 49.53418 -2.70855 2747 ft 282 kts 218°
2026-04-26 11:56 49.51931 -2.72738 2236 ft 272 kts 219°
2026-04-26 11:56 49.50516 -2.74536 2018 ft 254 kts 218°
2026-04-26 11:56 49.49227 -2.76185 2003 ft 228 kts 219°
2026-04-26 11:56 49.48066 -2.77670 2006 ft 209 kts 218°
2026-04-26 11:57 49.46955 -2.79088 2015 ft 207 kts 219°
2026-04-26 11:57 49.45851 -2.80495 2016 ft 206 kts 219°
2026-04-26 11:57 49.44747 -2.81897 2002 ft 205 kts 218°
2026-04-26 11:57 49.43648 -2.83299 2002 ft 205 kts 218°
2026-04-26 11:58 49.42545 -2.84696 2002 ft 206 kts 219°
2026-04-26 11:58 49.41403 -2.86015 2005 ft 205 kts 204°
2026-04-26 11:58 49.40033 -2.86353 1999 ft 202 kts 172°
2026-04-26 11:58 49.38678 -2.85793 2005 ft 202 kts 160°
2026-04-26 11:59 49.37361 -2.85038 1997 ft 202 kts 159°
2026-04-26 11:59 49.36047 -2.84253 2000 ft 203 kts 159°
2026-04-26 11:59 49.34731 -2.83461 2001 ft 204 kts 158°
2026-04-26 11:59 49.33411 -2.82665 2002 ft 204 kts 159°
2026-04-26 12:00 49.32091 -2.81869 1997 ft 204 kts 158°
2026-04-26 12:00 49.30733 -2.81270 1989 ft 204 kts 179°
2026-04-26 12:00 49.29395 -2.81870 2000 ft 204 kts 214°
2026-04-26 12:00 49.28468 -2.83502 1998 ft 207 kts 244°
2026-04-26 12:01 49.28231 -2.85659 1999 ft 209 kts 277°
2026-04-26 12:01 49.28767 -2.87673 1999 ft 210 kts 309°
2026-04-26 12:01 49.29927 -2.88986 1998 ft 211 kts 340°
2026-04-26 12:01 49.31334 -2.89256 1997 ft 200 kts 10°
2026-04-26 12:02 49.32639 -2.88594 2004 ft 196 kts 23°
2026-04-26 12:02 49.33899 -2.87814 1997 ft 196 kts 23°
2026-04-26 12:02 49.35165 -2.87033 1999 ft 196 kts 23°
2026-04-26 12:02 49.36431 -2.86255 1999 ft 196 kts 23°
2026-04-26 12:03 49.37696 -2.85478 1999 ft 195 kts 22°
2026-04-26 12:03 49.38959 -2.84703 2004 ft 195 kts 23°
2026-04-26 12:03 49.40225 -2.83922 2001 ft 196 kts 23°
2026-04-26 12:03 49.41480 -2.83113 2002 ft 196 kts 31°
2026-04-26 12:04 49.42472 -2.81740 2005 ft 193 kts 59°
2026-04-26 12:04 49.42939 -2.79842 2009 ft 190 kts 85°
2026-04-26 12:04 49.43000 -2.77817 2011 ft 190 kts 89°
2026-04-26 12:04 49.43053 -2.75781 2011 ft 191 kts 89°
2026-04-26 12:05 49.43109 -2.73773 1888 ft 189 kts 89°
2026-04-26 12:05 49.43166 -2.71798 1683 ft 172 kts 89°
2026-04-26 12:05 49.43216 -2.70100 1467 ft 152 kts 89°
2026-04-26 12:05 49.43260 -2.68554 1267 ft 140 kts 89°
2026-04-26 12:06 49.43302 -2.67091 1081 ft 136 kts 89°
2026-04-26 12:06 49.43342 -2.65653 896 ft 134 kts 89°
2026-04-26 12:06 49.43385 -2.64211 701 ft 135 kts 90°
2026-04-26 12:06 49.43434 -2.62781 492 ft 133 kts 91°
2026-04-26 12:07 49.43470 -2.61370 350 ft 132 kts 90°
2026-04-26 12:07 49.43497 -2.60129 314 ft 74 kts 88°
2026-04-26 12:07 49.43512 -2.59592 331 ft 29 kts 88°
2026-04-26 12:07 49.43519 -2.59313 335 ft 26 kts 87°
2026-04-26 12:08 49.43491 -2.59205 332 ft 11 kts 160°
2026-04-26 12:08 49.43408 -2.59199 331 ft 12 kts 189°
2026-04-26 12:08 49.43370 -2.59309 334 ft 14 kts 268°
2026-04-26 12:08 49.43366 -2.59479 329 ft 17 kts 267°
2026-04-26 12:09 49.43358 -2.59561 331 ft 3 kts 227°
2026-04-26 12:09 49.43318 -2.59565 328 ft 8 kts 177°
2026-04-26 12:09 49.43282 -2.59563 324 ft 1 kts 178°
2026-04-26 12:09 49.43273 -2.59563 328 ft 0 kts 178°